GLOBALSTAR M051 [-]

Last updated on July 6, 2021, 3:36 p.m. UTC

1 25853U 99037C   21186.73961248 -.00000049  00000-0  57406-3 0  9998
2 25853  51.9798 280.5200 0001501 186.3174 173.7618 11.42180691967556
UTC
Height (km)
Latitude
Longitude
Inclination
Orbital Period
UTC large
Height (km)
Speed (km/s)
/
Latitude / Longitude
Inclination (degrees)
Orbital Period (minutes)
Azimuth
Elevation
Range (km)
Doppler Factor
iOS Compass Heading
iOS Angle